Location: Huntsville
(41.2590°N, 111.7678°W)
Time: 08:48:20
(UTC+00:00)

Envisat - Pass Details

Date: 06 December 2021
Orbit: 764 x 766 km, 98.2° (Epoch: 18 January)

Event Time Altitude Azimuth Distance (km) Brightness Sun altitude
Rises 11:00:49 0° 35° (NE) 3,239 6.7 -40.1°
Reaches altitude 10° 11:04:41 10° 65° (ENE) 2,306 6.1 -39.4°
Maximum altitude 11:06:44 12° 89° (E) 2,141 6.0 -39.0°
Drops below altitude 10° 11:08:47 10° 113° (ESE) 2,298 6.1 -38.6°
Sets 11:12:35 0° 143° (SE) 3,217 6.6 -37.9°
